Powrót do katalogu

ECHOSTAR 105/SES 11

AktywnyŁącznośćGEO
NORAD 42967·PAYLOAD·🇱🇺 Luxembourg

Wystrzelony Oct 11, 2017 z Cape Canaveral Space Force Station

Loading…

TLE

ŚwieżeSource: CelesTrak SupGP

Epoka: Sep 14, 2026, 23:44 UTC

1 42967C 17063A   26257.98958333  .00000001  00000+0  00000+0 0  2571
2 42967   0.0421 314.0666 0002756 197.7067  93.4864  1.00271811    16

Śledź ECHOSTAR 105/SES 11 w czasie rzeczywistym z AllMySat

Download on the App Store